This demonstration page uses our WeatherBlox Daily Observations layout. Learn more.

Left ArrowRight Arrow

44.8408, -93.29828

Hourly Observations for October 23, 2021

Temp ( °F °C ) Dew Point ( °F °C ) Humidity (%) Winds ( mph kmh ) Pressure ( in mb ) Visibility ( mi km ) Precip ( " mm )
12:53 am 00:53 Mostly Clear 37 2.8 28 -2.2 70 70 Calm 30.09 1019 10 16 0.00 0.00
1:53 am 01:53 Mostly Clear 35 1.7 28 -2.2 76 76 N 3 6 30.09 1019 10 16 0.00 0.00
2:53 am 02:53 Clear 34 1.1 28 -2.2 79 79 N 5 7 30.09 1019 10 16 0.00 0.00
3:53 am 03:53 Clear 33 0.6 28 -2.2 82 82 Calm 30.10 1019 10 16 0.00 0.00
4:53 am 04:53 Clear 32 0 28 -2.2 85 85 Calm 30.10 1019 10 16 0.00 0.00
5:53 am 05:53 Clear 32 0 28 -2.2 85 85 NNE 3 6 30.11 1020 10 16 0.00 0.00
6:53 am 06:53 Clear 33 0.6 29 -1.7 85 85 N 3 6 30.11 1020 10 16 0.00 0.00
7:53 am 07:53 Sunny 33 0.6 29 -1.7 85 85 N 3 6 30.12 1020 10 16 0.00 0.00
8:53 am 08:53 Sunny 35 1.7 31 -0.6 85 85 Calm 30.13 1020 10 16 0.00 0.00
9:53 am 09:53 Sunny 40 4.4 32 0 73 73 E 5 7 30.13 1020 10 16 0.00 0.00
10:53 am 10:53 Sunny 44 6.7 32 0 63 63 E 5 7 30.13 1020 10 16 0.00 0.00
11:53 am 11:53 Sunny 47 8.3 30 -1.1 52 52 VRB 3 6 30.12 1020 10 16 0.00 0.00
12:53 pm 12:53 Sunny 48 8.9 30 -1.1 50 50 ESE 8 13 30.10 1019 10 16 0.00 0.00
1:53 pm 13:53 Mostly Sunny 49 9.4 30 -1.1 48 48 Calm 30.08 1019 10 16 0.00 0.00
2:53 pm 14:53 Mostly Sunny 51 10.6 30 -1.1 44 44 SSE 6 9 30.05 1018 10 16 0.00 0.00
3:53 pm 15:53 Mostly Sunny 51 10.6 30 -1.1 44 44 undefined N/A 30.04 1017 10 16 0.00 0.00
4:53 pm 16:53 Mostly Sunny 51 10.6 30 -1.1 44 44 Calm 30.03 1017 10 16 0.00 0.00
5:53 pm 17:53 Mostly Sunny 50 10 29 -1.7 44 44 E 3 6 30.03 1017 10 16 0.00 0.00
6:53 pm 18:53 Mostly Clear 48 8.9 30 -1.1 50 50 E 6 9 30.02 1017 10 16 0.00 0.00
7:53 pm 19:53 Mostly Clear 46 7.8 30 -1.1 54 54 ENE 6 9 30.03 1017 10 16 0.00 0.00
8:53 pm 20:53 Mostly Clear 45 7.2 30 -1.1 56 56 Calm 30.04 1017 10 16 0.00 0.00
9:53 pm 21:53 Mostly Clear 44 6.7 31 -0.6 60 60 NE 3 6 30.04 1017 10 16 0.00 0.00
10:53 pm 22:53 Mostly Clear 41 5 31 -0.6 67 67 ENE 3 6 30.04 1017 10 16 0.00 0.00
11:53 pm 23:53 Mostly Cloudy 42 5.6 31 -0.6 65 65 E 3 6 30.04 1017 10 16 0.00 0.00

Powered by AerisWeather